www.pogodaiklimat.ru

Погода и климат >> Архив погоды >> Россия >> Еврейская автономная область >> Смидович


ПОГОДА в Смидовиче

  • Прогноз погоды в Смидовиче
  • Монитор погоды в Смидовиче

АРХИВ ПОГОДЫ в Смидовиче

Время (UTC), дата Ветер
(напр.,м/с)
 
Видим.   Явления Облачность Т
(С)
Тd
(С)
f
(%)
Тe
(С)
Тes
(С)
Комфортность P
(гПа)
Po
(гПа)
Тmin
(С)
Tmax
(С)
R
(мм)
R24
(мм)
S
(см)
15 15.09 Ю 3 20 км 4/0
[Ci fib]
+13.6 +9.9 78 +12 +12 1006.7 1000.7
18 15.09 З 1 20 км 8/4 600 м
[Sc diur, vesp Ci fib]
+12.4 +10.4 88 +12 +12 1006.4 1000.4
21 15.09 З 2 20 км {ливн. осадки} 8/8 600 м
[Cb cap]
+12.3 +10.4 88 +11 +11 1008.0 1002.0 +12.1 0.3
00 16.09 СЗ 4 20 км {ливн. осадки} ясно +13.7 +1.3 43 +12 +16 1010.2 1004.2 +11.9
03 16.09 З 4 20 км ясно +15.6 -3.4 27 +15 +22 1010.5 1004.5
06 16.09 З 5 20 км ясно +16.0 -1.8 29 +15 +18 1010.3 1004.3
09 16.09 З 3
{10}
20 км ясно +12.9 -0.4 40 +12 +12 1011.2 1005.2 +16.4
12 16.09 З 1 20 км ясно +9.2 +2.0 61 +9 +9 1013.0 1006.9
15 16.09 З 3 20 км ясно +7.5 +2.8 72 +5 +5 1013.8 1007.7
18 16.09 З 2 20 км ясно +7.0 +2.9 75 +5 +5 1014.4 1008.3
21 16.09 штиль 0 20 км ясно +2.9 +1.6 91 +2 +2 1015.3 1009.1 +2.3
00 17.09 З 2 20 км ясно +12.5 +2.4 50 +12 +17 1015.4 1009.4
03 17.09 ЮЗ 3 20 км ясно +16.6 +2.3 38 +16 +25 1014.4 1008.4
06 17.09 Ю 3 20 км 3/0
[Ci fib]
+17.5 +1.8 35 +18 +22 1012.4 1006.5
09 17.09 Ю 2 20 км 8/4 600 м
[Cb cap Ac lent Ci fib]
+13.1 +4.7 57 +13 +13 1011.2 1005.2 +17.6
12 17.09 ЮВ 2 20 км 8/4 600 м
[Cb cap Ac lent Ci fib]
+8.5 +6.6 88 +7 +7 1010.0 1003.9
15 17.09 ЮВ 3 20 км 10/0
[Ac lent Ci fib]
+8.4 +6.2 86 +6 +6 1007.5 1001.4
18 17.09 В 2 20 км 8/0
[Ac lent Ci fib]
+8.6 +5.1 79 +7 +7 1003.9 997.9
21 17.09 ЮВ 4 20 км 10/0
[Ac lent Ci fib]
+8.5 +4.8 78 +5 +5 1000.2 994.1 +7.5
00 18.09 ЮЗ 4
{15}
10 км слаб. ливневой дождь 10/10 600 м
[Cb cap]
+5.6 +4.5 93 +1 +1 999.6 993.5 +5.6
03 18.09 З 8-16
{16}
20 км {ливн. осадки} 10/10 600 м
[Cb cap]
+6.0 +2.7 79 +1 +1 1003.0 996.9
06 18.09 З 5-11
{16}
20 км {ливн. осадки} 10/10 600 м
[Cb cap]
+7.1 +2.1 70 +3 +3 1004.6 998.6
09 18.09 З 5
{13}
20 км 10/10 600 м
[Cb cap]
+6.3 +1.0 69 +2 +2 1005.5 999.4 +10.1 5
12 18.09 З 4
{11}
20 км 10/10 600 м
[Cb cap]
+6.1 +0.9 69 +3 +3 1004.4 998.3
15 18.09 З 5
{11}
20 км 10/10 600 м
[Cb cap]
+5.6 +1.1 73 +1 +1 1002.2 996.1
18 18.09 З 4
{11}
10 км слаб. ливневой дождь 10/10 600 м
[Cb cap]
+4.9 +2.5 84 +1 +1 1000.8 994.7
21 18.09 З 4
{10}
20 км {ливн. осадки} 10/6 600 м
[Cb cap Ac lent]
+5.3 +2.5 82 +1 +1 1000.3 994.2 +4.4 1
00 19.09 СЗ 4 20 км {ливн. осадки} 10/6 600 м
[Cb cap Ac lent]
+7.3 +3.8 78 +4 +4 1001.8 995.7
03 19.09 СЗ 4 20 км 10/6 600 м
[Cb cap Ac lent Ci fib]
+10.6 +4.2 65 +8 +10 1004.5 998.5
06 19.09 СЗ 3 20 км 8/6 600 м
[Cb cap Ci fib]
+14.6 +4.6 51 +14 +15 1005.8 999.9
09 19.09 З 2 20 км 8/4 600 м
[Cb cap Ci fib]
+12.9 +5.4 60 +12 +12 1008.0 1002.1 +15.1
12 19.09 З 3 20 км 4/0
[Ac lent]
+8.9 +4.1 72 +7 +7 1010.4 1004.3
15 19.09 З 3 20 км 6/0
[Ci fib]
+7.6 +4.0 78 +5 +5 1011.6 1005.5
18 19.09 З 2 20 км ясно +6.5 +3.6 82 +4 +4 1012.3 1006.2
21 19.09 З 1 20 км 3/0
[Ac lent]
+3.8 +2.5 91 +2 +2 1013.9 1007.6 +3.8
00 20.09 С 2 20 км ясно +10.8 +5.2 68 +10 +14 1015.7 1009.6 +3.8
03 20.09 СЗ 1 20 км 3/3 600 м
[Cu hum]
+14.5 +6.5 59 +15 +23 1016.5 1010.5
06 20.09 В 2 20 км 3/3 600 м
[Cu hum Ci fib]
+16.5 +7.1 54 +17 +20 1016.3 1010.4
09 20.09 штиль 0 20 км 9/0
[Ci fib]
+12.0 +8.3 78 +12 +12 1017.6 1011.5 +16.6
12 20.09 В 1 20 км 3/0
[Ci fib]
+6.9 +6.0 94 +6 +6 1018.7 1012.5
15 20.09 В 1 20 км ясно +7.9 +7.0 94 +7 +7 1018.8 1012.6
18 20.09 В 1 20 км 10/0
[Cs]
+7.3 +6.5 95 +6 +6 1018.3 1012.2
21 20.09 СВ 1 20 км 10/0
[Ac lent Ci fib]
+7.0 +6.3 95 +6 +6 1018.3 1011.9 +6.1
00 21.09 С 1 20 км 8/3 600 м
[Cb cap Ac lent]
+9.3 +8.2 93 +9 +10 1018.2 1012.0
03 21.09 штиль 0 20 км {ливн. осадки} 10/6 600 м
[Cb cap Ac lent]
+11.2 +8.3 82 +11 +12 1018.1 1012.0
06 21.09 ЮЗ 2 20 км {ливн. осадки} 10/6 600 м
[Cb cap Ac lent]
+12.2 +8.7 79 +11 +12 1017.9 1011.8
09 21.09 ЮЗ 2 20 км 6/0
[Ac lent Ci fib]
+10.7 +8.3 85 +9 +9 1018.5 1012.4 +12.7 0.4
12 21.09 З 2 20 км 4/0
[Ci fib]
+8.8 +7.3 90 +7 +7 1019.5 1013.4
15 21.09 З 1 20 км 4/0
[Ci fib]
+6.3 +4.9 91 +5 +5 1019.8 1013.6
18 21.09 ЮЗ 2 20 км ясно +4.8 +3.2 89 +2 +2 1020.6 1014.4
21 21.09 З 2 20 км ясно +4.2 +2.3 87 +1 +1 1021.4 1015.1 +3.6
00 22.09 З 4 20 км ясно +11.2 +4.5 63 +9 +12 1021.8 1015.7
03 22.09 З 4 20 км ясно +15.6 +3.4 44 +15 +21 1021.1 1015.1
06 22.09 ЮЗ 4 20 км ясно +18.6 +5.6 42 +19 +22 1019.3 1013.4
09 22.09 ЮЗ 2 20 км ясно +13.3 +8.0 70 +13 +13 1019.6 1013.6 +18.7

 

Местоположение метеостанции Смидович (Еврейская автономная область, Россия): широта 48.60 долгота 133.80 высота над уровнем моря 52 м.

В архиве по умолчанию представлена погода в Смидовиче за последнюю неделю. Архивные данные за месяц целиком и за предыдущие месяцы, начиная с января 2011 года, Вы можете получить, выбрав интересующий диапазон дат из раскрывающегося списка и нажав кнопку "Ввод!".


*Определитесь, кто Вы:
робот инопланетянин человек

Внимание! Время в таблицах - всемирное. Для получения местного времени необходимо прибавить поправку, которая равна 10 ч.

Смотрите также архив погоды в соседних городах и на ближайших метеорологических станциях:

Погода в Хабаровск Центре (Еврейская автономная область, Россия) (25 км)
Погода в Биробиджане (Еврейская автономная область, Россия) (68 км)
Погода в Бычихе (Хабаровский край, Россия) (82 км)
Погода на Хабаровск Мосту (Хабаровский край, Россия) (90 км)
Погода в Хабаровске АМС (Хабаровский край, Россия) (91 км)
Погода в Хабаровске Агромет (Хабаровский край, Россия) (95 км)
Погода в Хабаровске (Хабаровский край, Россия) (96 км)
Погода в Урми (Хабаровский край, Россия) (99 км)
Погода в Хабаровске Аэр. Большой (Хабаровский край, Россия) (99 км)
Погода в Ленинское (Еврейская автономная область, Россия) (115 км)

Пояснения к столбцам:

Ветер - указаны скорость ветра в м/с - средняя за 10 мин, порывы в срок и между сроками (в фигурных скобках) и направление, откуда дует ветер: С - северный, СВ - северо-восточный, В - восточный, ЮВ - юго-восточный, Ю - южный, ЮЗ - юго-западный, З - западный, СЗ - северо-западный.
Видимость - горизонтальная дальность видимости в метрах или километрах. При видимости от 1 до 10 км при отсутствии осадков обычно наблюдается дымка, при ухудшении видимости до 1 км и менее - туман. В сухую погоду видимость может ухудшаться дымом, пылью или мглою.
Явления - указаны атмосферные явления, наблюдавшиеся в срок или в последний час перед сроком; фигурными скобками обозначены явления, наблюдавшиеся между сроками (за 1-3 часа до срока); квадратными скобками обозначены град или гололедные отложения с указанием их диаметра в мм.
Облачность - указаны через наклонную черту общая и нижняя облачность в баллах и высота нижней границы облаков в метрах; квадратными скобками обозначены формы облаков: Ci - перистые, Cs - перисто-слоистые, Cc - перисто-кучевые, Ac - высококучевые, As - высокослоистые, Sc - слоисто-кучевые, Ns - слоисто-дождевые, Cu - кучевые, Cb - кучево-дождевые. Подробнее классификацию облаков см. в Атласе облаков (PDF).
T - Температура воздуха - температура, измеренная на высоте 2 м над землей.
Td - Температура точки росы - температура, при понижении до которой содержащийся в воздухе водяной пар достигнет насыщения.
f - Относительная влажность воздуха - влажноcть воздуха, измеренная на высоте 2 м над землей.
Te - Эффективная температура - температура, которую ощущает одетый по сезону человек в тени. Характеристика душности погоды. При расчете учитывается влияние влажности воздуха и скорости ветра на теплоощущения человека.
Tes - Эффективная температура на солнце - температура, которую ощущает человек, с поправкой на солнечный нагрев. Характеристика знойности погоды. Зависит от высоты солнца над горизонтом, облачности и скорости ветра. Ночью, в пасмурную погоду, а также при ветре 12 м/с и более поправка равна нулю.
P - Атмосферное давление - приведенное к уровню моря атмосферное давление.
Po - Атмосферное давление - измеренное на уровне метеостанции атмосферное давление.
Tmin - Минимальная температура - минимум температуры воздуха на высоте 2 м над землей.
Tmax - Максимальная температура - максимум температуры воздуха на высоте 2 м над землей.
R - Количество осадков - Количество выпавших осадков за период времени, мм. При наведении курсора мыши на число - период времени, за который выпало указанное количество осадков.
R24 - Количество осадков - Количество выпавших осадков за 24 часа, мм.
S - Снежный покров - Высота снежного покрова, см. При наведении курсора мыши на число - состояние снежного покрова и степень покрытия местности в баллах.